Weather History for Berlin, NH

Change the Weather History Date:

Saturday, March 16, 2013

  Actual Average Record
Temperature  
Mean Temperature 20 °F -  
Max Temperature 27 °F 32 °F 48 °F (2009)
Min Temperature 10 °F 11 °F -2 °F (2014)
Degree Days  
Heating Degree Days 45    
Moisture  
Dew Point 10 °F    
Average Humidity 61    
Maximum Humidity 80    
Minimum Humidity 43    
Precipitation  
Precipitation 0.00 in - - ()
Sea Level Pressure  
Sea Level Pressure 29.76 in    
Wind  
Wind Speed 5 mph (NNW)    
Max Wind Speed 12 mph    
Max Gust Speed 20 mph    
Visibility 10 miles    
Events Snow    
Averages and records for this station are not official NWS values.
T = Trace of Precipitation, MM = Missing Value Source: NWS Daily Summary

Daily Weather History Graph

Daily Weather History Graph

Search for Another Location

Airport:

Trip Planner

Search our weather history database for the weather conditions in past years. The results will help you decide how hot, cold, wet, or windy it might be!

Date:

Astronomy

Mar. 16, 2013 Rise Set
Actual Time 6:54 AM EDT 6:52 PM EDT
Civil Twilight 6:25 AM EDT 7:21 PM EDT
Nautical Twilight 5:51 AM EDT 7:55 PM EDT
Astronomical Twilight 5:17 AM EDT 8:30 PM EDT
Moon 9:10 AM EDT (3/16) No Moon Set
Length of Visible Light 12h 55m
Length of Day
11h 57m
Waxing Crescent, 23% of the Moon is Illuminated
Mar 16
Waxing Crescent
Mar 19
First Quarter
Mar 27
Full
Apr 3
Last Quarter
Apr 10
New

Hourly Weather History & Observations

Time (EDT) Temp. Windchill Dew Point Humidity Pressure Visibility Wind Dir Wind Speed Gust Speed Precip Events Conditions
12:32 AM 24.8 °F 20.5 °F 12.2 °F 59% 29.61 in 10.0 mi Variable 3.5 mph - 0.00 in   Overcast
12:52 AM 25.0 °F 18.1 °F 12.9 °F 60% 29.67 in 10.0 mi Variable 5.8 mph - 0.00 in   Overcast
1:52 AM 21.9 °F - 16.0 °F 78% 29.68 in 10.0 mi Calm Calm - 0.00 in   Overcast
1:59 AM 21.2 °F - 15.8 °F 80% 29.63 in 10.0 mi Calm Calm - N/A   Mostly Cloudy
2:12 AM 21.2 °F - 15.8 °F 80% 29.63 in 10.0 mi Calm Calm - N/A   Mostly Cloudy
2:52 AM 23.0 °F 15.8 °F 15.1 °F 72% 29.70 in 9.0 mi NNW 5.8 mph - N/A   Overcast
3:32 AM 21.2 °F 12.6 °F 12.2 °F 68% 29.66 in 10.0 mi NNW 6.9 mph - 0.00 in   Overcast
3:52 AM 21.9 °F 14.5 °F 14.0 °F 72% 29.71 in 10.0 mi NNW 5.8 mph - 0.00 in   Overcast
3:59 AM 21.2 °F 13.6 °F 14.0 °F 74% 29.67 in 10.0 mi NNW 5.8 mph - N/A   Overcast
4:15 AM 21.2 °F 13.6 °F 15.8 °F 80% 29.67 in 7.0 mi North 5.8 mph - 0.00 in Snow Light Snow
4:52 AM 21.0 °F 14.6 °F 12.0 °F 68% 29.74 in 10.0 mi NW 4.6 mph - 0.00 in   Overcast
5:32 AM 19.4 °F 14.3 °F 10.4 °F 68% 29.70 in 10.0 mi Variable 3.5 mph - N/A   Scattered Clouds
5:52 AM 19.9 °F - 12.0 °F 71% 29.75 in 10.0 mi Calm Calm - N/A   Mostly Cloudy
6:52 AM 19.9 °F - 12.0 °F 71% 29.77 in 6.0 mi Calm Calm - 0.00 in Snow Light Snow
7:52 AM 19.9 °F 13.4 °F 10.0 °F 65% 29.79 in 10.0 mi NW 4.6 mph - 0.00 in   Overcast
8:07 AM 19.4 °F 8.6 °F 8.6 °F 63% 29.73 in 10.0 mi NNW 9.2 mph - N/A   Overcast
8:31 AM 19.4 °F 8.6 °F 6.8 °F 58% 29.74 in 10.0 mi NNW 9.2 mph 17.3 mph N/A   Scattered Clouds
8:38 AM 19.4 °F 8.6 °F 8.6 °F 63% 29.74 in 10.0 mi NNW 9.2 mph - N/A   Mostly Cloudy
8:52 AM 19.9 °F 7.9 °F 8.1 °F 60% 29.81 in 10.0 mi North 11.5 mph 17.3 mph N/A   Overcast
9:50 AM 21.2 °F 11.7 °F 8.6 °F 58% 29.75 in 10.0 mi NNW 8.1 mph - N/A   Overcast
9:52 AM 21.9 °F 10.4 °F 8.1 °F 55% 29.81 in 10.0 mi North 11.5 mph - N/A   Overcast
10:52 AM 23.0 °F 18.4 °F 6.1 °F 48% 29.80 in 10.0 mi NW 3.5 mph - N/A   Mostly Cloudy
11:52 AM 25.0 °F 16.3 °F 6.1 °F 45% 29.80 in 10.0 mi NNW 8.1 mph - N/A   Overcast
12:52 PM 26.1 °F 20.5 °F 6.1 °F 43% 29.80 in 10.0 mi Variable 4.6 mph 16.1 mph N/A   Mostly Cloudy
1:52 PM 26.1 °F 19.4 °F 6.1 °F 43% 29.80 in 10.0 mi Variable 5.8 mph 16.1 mph N/A   Scattered Clouds
2:52 PM 26.1 °F 18.4 °F 6.1 °F 43% 29.79 in 10.0 mi Variable 6.9 mph 19.6 mph N/A   Mostly Cloudy
3:52 PM 25.0 °F 15.5 °F 5.0 °F 43% 29.80 in 10.0 mi West 9.2 mph 17.3 mph N/A   Mostly Cloudy
4:52 PM 26.1 °F 19.4 °F 6.1 °F 43% 29.79 in 10.0 mi Variable 5.8 mph - N/A   Mostly Cloudy
5:52 PM 25.0 °F 18.1 °F 6.1 °F 45% 29.80 in 10.0 mi Variable 5.8 mph - N/A   Overcast
6:52 PM 24.1 °F 19.7 °F 7.0 °F 48% 29.81 in 10.0 mi Variable 3.5 mph - N/A   Overcast
7:52 PM 21.9 °F 14.5 °F 8.1 °F 55% 29.83 in 10.0 mi NNW 5.8 mph - N/A   Scattered Clouds
8:52 PM 21.0 °F 14.6 °F 8.1 °F 57% 29.85 in 10.0 mi NNW 4.6 mph - N/A   Clear
9:52 PM 19.9 °F 14.9 °F 7.0 °F 57% 29.87 in 10.0 mi NNW 3.5 mph - N/A   Scattered Clouds
10:52 PM 14.0 °F - 7.0 °F 74% 29.88 in 10.0 mi Calm Calm - N/A   Clear
11:52 PM 10.0 °F - 5.0 °F 80% 29.90 in 10.0 mi Calm Calm - N/A   Clear